Regional Weather Roundup
Issued by NWS Upton, NY

Current Version | Previous Version | Text Only | Print | Product List | Glossary Off
Versions: 1 2 3 4 5 6 7 8 9 10 11 12 13 14 15 16 17 18 19 20 21 22 23 24 25 26 27 28 29 30 31 32 33 34 35 36 37 38 39 40 41 42 43 44 45 46 47 48 49 50
282 ASUS41 KOKX 202108 RWROKX REGIONAL WEATHER ROUNDUP NATIONAL WEATHER SERVICE NEW YORK NY 400 PM EST FRI JAN 20 2017 NOTE: "FAIR" INDICATES FEW OR NO CLOUDS BELOW 12,000 FEET WITH NO SIGNIFICANT WEATHER AND/OR OBSTRUCTIONS TO VISIBILITY. NYZ071-072-176-178-NJZ106-104-202200- NEW YORK CITY METRO AREA CITY SKY/WX TMP DP RH WIND PRES REMARKS Central Park LGT RAIN 42 38 85 S5 29.95S Wall St Helipt CLOUDY 42 38 85 S3 29.96R LaGuardia APRT LGT RAIN 45 35 68 S6 29.94R Kennedy INTL LGT RAIN 44 32 62 SE6 29.95S Breezy Point N/A 39 N/A N/A SE3 N/A Newark/Liberty LGT RAIN 42 38 85 S6 29.94R FOG Teterboro LGT RAIN 43 38 82 SW8 29.93R FOG $$ NYZ177-179-078>081-202200- LONG ISLAND NEW YORK CITY SKY/WX TMP DP RH WIND PRES REMARKS Jones Beach N/A 41 N/A N/A E5 N/A Matinecock PT NOT AVBL Farmingdale CLOUDY 42 33 70 SE7 29.94S MacArthur/ISP CLOUDY 42 34 73 SE6 29.95R Shirley CLOUDY 42 35 76 E5 29.96R Westhampton CLOUDY 42 33 70 CALM 29.96R Southampton NOT AVBL Bridgehampton NOT AVBL East Hampton CLOUDY 40 33 75 CALM 29.95R Montauk N/A 41 33 73 E5 29.95F $$ NYZ052-065-067-202200- HUDSON VALLEY CITY SKY/WX TMP DP RH WIND PRES REMARKS White Plains MOCLDY 41 32 70 SE6 29.92S Newburgh CLOUDY 41 34 75 SE6 29.92S Montgomery CLOUDY 42 33 70 S5 29.89S Poughkeepsie CLOUDY 42 32 67 VRB5 29.91S Albany CLOUDY 40 31 70 S3 29.91F $$ NJZ001-105-106-008-010-013-015-019>022-104-202200- NEW JERSEY CITY SKY/WX TMP DP RH WIND PRES REMARKS Newark/Liberty LGT RAIN 42 38 85 S6 29.94R FOG Teterboro LGT RAIN 43 38 82 SW8 29.93R FOG Caldwell LGT RAIN 42 38 85 S6 29.93S FOG Somerville LGT RAIN 41 38 89 CALM 29.91F FOG Linden LGT RAIN 41 38 89 CALM 29.94S Sussex LGT RAIN 41 35 79 S7 29.90S Andover N/A 39 37 92 CALM 29.90F Trenton LGT RAIN 41 39 93 SE3 29.92F FOG Millville CLOUDY 42 42 100 CALM 29.93S Atlantic City CLOUDY 42 40 92 E6 29.93F FOG Wrightstown LGT RAIN 42 40 93 E3 29.90F Toms River LGT RAIN 42 41 96 CALM 29.95S Belmar LGT RAIN 42 40 92 CALM 29.95R $$ PAZ047>061-062-071-202200- EASTERN PENNSYLVANIA CITY SKY/WX TMP DP RH WIND PRES REMARKS Philadelphia CLOUDY 41 39 93 E5 29.93F Allentown LGT RAIN 40 36 86 E6 29.90F FOG Scranton RAIN 39 38 96 N3 29.83F FOG $$ CTZ002-004>006-009-010-012-RIZ004-006-007-MAZ004-011-015-202200- SOUTHERN NEW ENGLAND IN CT CITY SKY/WX TMP DP RH WIND PRES REMARKS Bradley INTL CLOUDY 41 30 65 S3 29.94S Hartford CLOUDY 41 31 67 S3 29.94F Danbury CLOUDY 41 32 70 SE5 29.93S Wtrbury/Oxford CLOUDY 39 28 65 SW3 29.93R Bridgeport CLOUDY 41 34 76 SE6 29.95R Meriden CLOUDY 42 30 62 CALM 29.94S New Haven CLOUDY 40 33 76 SE6 29.95R Chester CLOUDY 39 34 81 CALM 29.94R Groton CLOUDY 41 32 70 E5 29.94F Wilimantic CLOUDY 42 31 64 S5 29.94F IN RI CITY SKY/WX TMP DP RH WIND PRES REMARKS Providence CLOUDY 41 29 62 SE3 29.95F Block Island NOT AVBL Westerly CLOUDY 41 29 62 SE3 29.95F IN MA CITY SKY/WX TMP DP RH WIND PRES REMARKS Boston CLOUDY 39 33 79 E7 29.97S WCI 34 Worcester CLOUDY 36 27 69 CALM 29.91F Westfield CLOUDY 40 30 67 S3 29.93S Provincetown CLOUDY 41 30 65 CALM 29.98F Nantucket CLOUDY 42 30 62 CALM 29.97F $$ ANZ330-335-338-340-345-350-353-355-202200- COASTAL MARINE OBSERVATIONS STATION/POSITION TIME SKY/WX TEMP WIND PRES VSBY WAVE AIR SEA DIR/SP/G HT/PER (UTC) (F) (DEG/KT/KT) (MB) (MI) (FT/S) NY HARB ENTRANCE 1950 43 44 100/ 6/ 6 1013.9 4/12 20 S FIRE ISLAND 1950 44 46 70/ 10/ 12 1013.2 5/12 GREAT SOUTH BAY NOT AVBL 23 SSW MONTAUK P 1950 43 48 90/ 10/ 12 1014.3 4/10 15 E BARNEGAT LI 2030 47 N/A 4/11 HUDSON CANYON 1950 48 51 1013.3 5/11 KINGS POINT 2042 40 39 1013.6 EXECUTION ROCKS 2045 40 50/ 8/ 8 N/A CENTRAL LI SOUND 2015 40 90/ 8/ 8 N/A 0 EASTERN LI SOUND NOT AVBL ROBBINS REEF 2042 41 180/ 10/ 10 1014.0 $$ >>>>>>>>>>>>>>>>>>>>>>>>>>>> KEY <<<<<<<<<<<<<<<<<<<<<<<<<<< > < > SKY/WX - Sky Condition/Present Weather < > TMP - Temperature in Fahrenheit < > DP - Dew Point in Fahrenheit < > RH - Relative Humidity in Percent < > WIND - Direction (from) and Speed in MPH < > PRES - Mean Sea Level Pressure (inches of Hg) < > WCI - Wind Chill Index < > VSB - VISIBILITY IN MILES < > HX - HEAT INDEX < > TC - TEMPERATURE IN CELSIUS < > VRB - VARIABLE WIND DIRECTION < > < >>>>>>>>>>>>>>>>>>>>>>>>>>>> KEY <<<<<<<<<<<<<<<<<<<<<<<<<<<

USA.gov is the U.S. government's official web portal to all federal, state and local government web resources and services.